| time (UTC) | temp F | wind direction | speed MPH | gust MPH | rain 1hr in | rain 24hr in | rain mn in | humidity % | barometer mb |
| 20260906203204 | 105 | 158 | 2.0 | 5.0 | 0.00 | 0.00 | 0.00 | 7 | 1014.0 |
| 20260906201204 | 105 | 135 | 5.0 | 5.0 | 0.00 | 0.00 | 0.00 | 7 | 1015.1 |
| 20260906200206 | 104 | 158 | 4.0 | 5.0 | 0.00 | 0.00 | 0.00 | 7 | 1015.2 |
| 20260906195204 | 103 | 90 | 1.0 | 5.0 | 0.00 | 0.00 | 0.00 | 7 | 1015.2 |
| 20260906194204 | 105 | 158 | 5.0 | 5.0 | 0.00 | 0.00 | 0.00 | 7 | 1015.1 |
| 20260906193204 | 105 | 202 | 2.0 | 5.0 | 0.00 | 0.00 | 0.00 | 7 | 1016.1 |
| 20260906190204 | 104 | 158 | 4.0 | 5.0 | 0.00 | 0.00 | 0.00 | 7 | 1016.2 |
| 20260906184204 | 103 | 158 | 4.0 | 5.0 | 0.00 | 0.00 | 0.00 | 7 | 1015.3 |
| 20260906182204 | 102 | 112 | 1.0 | 5.0 | 0.00 | 0.00 | 0.00 | 7 | 1016.4 |
| 20260906181204 | 102 | 158 | 7.0 | 5.0 | 0.00 | 0.00 | 0.00 | 7 | 1016.4 |
| 20260906175204 | 102 | 180 | 5.0 | 5.0 | 0.00 | 0.00 | 0.00 | 7 | 1017.4 |
| 20260906173204 | 101 | 225 | 8.0 | 5.0 | 0.00 | 0.00 | 0.00 | 7 | 1018.5 |
| 20260906171204 | 98 | 180 | 0.0 | 5.0 | 0.00 | 0.00 | 0.00 | 8 | 1018.8 |
| 20260906170204 | 98 | 112 | 1.0 | 5.0 | 0.00 | 0.00 | 0.00 | 8 | 1018.8 |
| 20260906164205 | 100 | 202 | 1.0 | 5.0 | 0.00 | 0.00 | 0.00 | 8 | 1018.7 |
| 20260906161206 | 97 | 135 | 0.0 | 5.0 | 0.00 | 0.00 | 0.00 | 8 | 1018.9 |
| 20260906160204 | 96 | 112 | 0.0 | 5.0 | 0.00 | 0.00 | 0.00 | 9 | 1018.9 |
| 20260906155205 | 94 | 90 | 1.0 | 5.0 | 0.00 | 0.00 | 0.00 | 9 | 1019.1 |
| 20260906012204 | 91 | 158 | 0.0 | 5.0 | 0.00 | 0.00 | 0.00 | 10 | 1015.1 |
| 20260905220204 | 104 | 135 | 6.0 | 5.0 | 0.00 | 0.00 | 0.00 | 7 | 1012.0 |
| 20260905215206 | 104 | 158 | 8.0 | 5.0 | 0.00 | 0.00 | 0.00 | 7 | 1012.1 |
| 20260905213204 | 104 | 135 | 7.0 | 5.0 | 0.00 | 0.00 | 0.00 | 7 | 1013.1 |
| 20260905211204 | 105 | 158 | 7.0 | 5.0 | 0.00 | 0.00 | 0.00 | 7 | 1013.0 |
| 20260905210207 | 105 | 158 | 0.0 | 5.0 | 0.00 | 0.00 | 0.00 | 7 | 1014.1 |
| 20260905205205 | 105 | 112 | 7.0 | 5.0 | 0.00 | 0.00 | 0.00 | 7 | 1014.1 |
| 20260905204206 | 106 | 158 | 4.0 | 5.0 | 0.00 | 0.00 | 0.00 | 6 | 1014.0 |